Date,TemperatureHighF,TemperatureAvgF,TemperatureLowF,DewpointHighF,DewpointAvgF,DewpointLowF,HumidityHigh,HumidityAvg,HumidityLow,PressureMaxIn,PressureMinIn,WindSpeedMaxMPH,WindSpeedAvgMPH,GustSpeedMaxMPH,PrecipitationSumIn
2013-7-1,84,73,60,58,54,49,91,54,36,29.98,29.89,15,2,15,0.00
2013-7-2,84,70,55,60,53,48,100,58,36,30.04,29.95,12,2,12,0.00
2013-7-3,85,70,55,56,53,49,93,59,33,30.07,29.95,9,2,10,0.00
2013-7-4,88,74,58,59,54,50,87,54,35,30.04,29.92,9,1,9,0.00
2013-7-5,91,76,59,61,56,53,92,55,34,30.01,29.89,9,1,9,0.00
2013-7-6,90,77,65,65,60,55,92,58,35,29.98,29.89,12,2,12,0.00
2013-7-7,92,80,66,67,63,60,98,60,38,30.04,29.95,10,2,10,0.00
2013-7-8,93,82,70,68,65,61,90,59,38,30.07,29.98,10,2,11,0.00
2013-7-9,95,82,70,68,65,63,91,59,37,30.07,29.92,13,2,13,0.00
2013-7-10,99,80,70,73,68,64,100,70,35,29.98,29.83,17,2,17,0.79
2013-7-11,96,81,69,76,69,63,100,72,37,29.95,29.86,10,1,11,0.00
2013-7-12,89,78,67,68,61,56,82,56,41,30.04,29.92,13,3,13,0.00
2013-7-13,84,72,57,64,58,55,100,65,40,30.04,29.92,7,1,8,0.00
2013-7-14,88,76,60,65,59,56,100,59,37,30.01,29.92,14,2,14,0.00
2013-7-15,90,80,71,66,64,60,81,60,40,30.13,29.98,11,3,14,0.00
2013-7-16,91,80,69,72,66,62,100,64,40,30.22,30.10,14,2,14,0.00
2013-7-17,94,81,68,74,64,59,100,61,37,30.25,30.13,11,2,11,0.00
2013-7-18,97,79,68,71,65,61,100,68,35,30.16,29.95,22,2,22,3.13
2013-7-19,89,73,68,71,68,62,100,86,48,30.04,29.89,9,1,15,0.00
2013-7-20,88,76,68,72,67,63,100,76,46,29.95,29.80,12,2,12,0.71
2013-7-21,89,78,69,72,67,65,93,72,50,29.92,29.80,13,1,13,0.00
2013-7-22,91,77,67,72,66,59,100,73,45,29.95,29.80,13,2,19,0.35
2013-7-23,94,78,69,77,70,63,100,80,47,29.92,29.75,20,3,20,0.39
2013-7-24,90,77,68,70,66,61,100,74,40,29.95,29.78,11,2,11,0.47
2013-7-25,83,75,69,72,65,60,100,74,52,30.04,29.95,10,2,10,0.31
2013-7-26,71,68,65,69,64,60,100,88,73,30.04,29.92,8,2,8,0.71
2013-7-27,86,73,63,70,62,57,100,73,38,29.98,29.89,9,2,9,0.31
2013-7-28,86,73,62,63,60,54,100,67,42,30.01,29.92,9,2,9,0.31
2013-7-29,85,76,66,68,64,60,88,68,53,30.07,29.95,11,3,11,0.31
2013-7-30,84,78,73,73,68,63,95,73,55,30.04,29.95,10,2,10,0.31
2013-7-31,90,76,72,75,72,67,100,88,52,30.01,29.92,15,2,15,1.22